Time,TemperatureF,DewpointF,PressureIn,WindDirection,WindDirectionDegrees,WindSpeedMPH,WindSpeedGustMPH,Humidity,HourlyPrecipIn,Conditions,Clouds,dailyrainin,SolarRadiationWatts/m^2,SoftwareType,DateUTC
2013-07-31 00:01:00,63.0,59.0,-100.00,NNW,336,0.0,1.0,88,0.00,,,0.00,0.000000,,2013-07-31 04:01:00,
2013-07-31 00:22:00,63.0,59.0,-100.00,NNW,336,0.0,1.0,88,0.00,,,0.00,0.000000,,2013-07-31 04:22:00,
2013-07-31 00:32:00,63.0,59.0,-100.00,NNW,336,0.0,1.0,88,0.00,,,0.00,0.000000,,2013-07-31 04:32:00,
2013-07-31 00:42:00,63.0,59.0,-100.00,NNW,336,0.0,1.0,88,0.00,,,0.00,0.000000,,2013-07-31 04:42:00,
2013-07-31 00:52:00,63.0,59.0,-100.00,NNW,336,0.0,1.0,88,0.00,,,0.00,0.000000,,2013-07-31 04:52:00,
2013-07-31 01:01:00,63.0,59.0,-100.00,WNW,293,0.0,1.0,87,0.00,,,0.00,0.000000,,2013-07-31 05:01:00,
2013-07-31 01:22:00,63.0,59.0,-100.00,WNW,293,0.0,1.0,87,0.00,,,0.00,0.000000,,2013-07-31 05:22:00,
2013-07-31 01:32:00,63.0,59.0,-100.00,WNW,293,0.0,1.0,87,0.00,,,0.00,0.000000,,2013-07-31 05:32:00,
2013-07-31 01:43:00,63.0,59.0,-100.00,WNW,293,0.0,1.0,87,0.00,,,0.00,0.000000,,2013-07-31 05:43:00,
2013-07-31 01:52:00,63.0,59.0,-100.00,WNW,293,0.0,1.0,87,0.00,,,0.00,0.000000,,2013-07-31 05:52:00,
2013-07-31 02:01:00,64.0,60.0,-100.00,WNW,296,0.0,3.0,88,0.00,,,0.00,0.000000,,2013-07-31 06:01:00,
2013-07-31 02:32:00,64.0,60.0,-100.00,WNW,296,0.0,3.0,88,0.00,,,0.00,0.000000,,2013-07-31 06:32:00,
2013-07-31 02:43:00,64.0,60.0,-100.00,WNW,296,0.0,3.0,88,0.00,,,0.00,0.000000,,2013-07-31 06:43:00,
2013-07-31 02:53:00,64.0,60.0,-100.00,WNW,296,0.0,3.0,88,0.00,,,0.00,0.000000,,2013-07-31 06:53:00,
2013-07-31 03:01:00,64.0,61.0,-100.00,North,351,0.0,3.0,89,0.00,,,0.00,0.000000,,2013-07-31 07:01:00,
2013-07-31 03:22:00,64.0,61.0,-100.00,North,351,0.0,3.0,89,0.00,,,0.00,0.000000,,2013-07-31 07:22:00,
2013-07-31 03:32:00,64.0,61.0,-100.00,North,351,0.0,3.0,89,0.00,,,0.00,0.000000,,2013-07-31 07:32:00,
2013-07-31 03:43:00,64.0,61.0,-100.00,North,351,0.0,3.0,89,0.00,,,0.00,0.000000,,2013-07-31 07:43:00,
2013-07-31 03:52:00,64.0,61.0,-100.00,North,351,0.0,3.0,89,0.00,,,0.00,0.000000,,2013-07-31 07:52:00,
2013-07-31 04:01:00,62.0,59.0,-100.00,NNE,22,0.0,3.0,91,0.00,,,0.00,0.000000,,2013-07-31 08:01:00,
2013-07-31 04:33:00,62.0,59.0,-100.00,NNE,22,0.0,3.0,91,0.00,,,0.00,0.000000,,2013-07-31 08:33:00,
2013-07-31 04:42:00,62.0,59.0,-100.00,NNE,22,0.0,3.0,91,0.00,,,0.00,0.000000,,2013-07-31 08:42:00,
2013-07-31 04:53:00,62.0,59.0,-100.00,NNE,22,0.0,3.0,91,0.00,,,0.00,0.000000,,2013-07-31 08:53:00,
2013-07-31 05:01:00,61.0,59.0,-100.00,NNW,339,0.0,-999.0,94,0.00,,,0.00,,,2013-07-31 09:01:00,
2013-07-31 05:33:00,61.0,59.0,-100.00,NNW,339,0.0,-999.0,94,0.00,,,0.00,,,2013-07-31 09:33:00,
2013-07-31 05:44:00,61.0,59.0,-100.00,NNW,339,0.0,-999.0,94,0.00,,,0.00,,,2013-07-31 09:44:00,
2013-07-31 05:52:00,61.0,59.0,-100.00,NNW,339,0.0,-999.0,94,0.00,,,0.00,,,2013-07-31 09:52:00,
2013-07-31 06:01:00,62.0,61.0,-100.00,North,4,0.0,3.0,96,0.00,,,0.00,1.000000,,2013-07-31 10:01:00,
2013-07-31 06:32:00,62.0,61.0,-100.00,North,4,0.0,3.0,96,0.00,,,0.00,1.000000,,2013-07-31 10:32:00,
2013-07-31 06:44:00,62.0,61.0,-100.00,North,4,0.0,3.0,96,0.00,,,0.00,1.000000,,2013-07-31 10:44:00,
2013-07-31 06:52:00,62.0,61.0,-100.00,North,4,0.0,3.0,96,0.00,,,0.00,1.000000,,2013-07-31 10:52:00,
2013-07-31 07:01:00,65.0,63.0,-100.00,North,10,0.0,4.0,93,0.00,,,0.00,29.000000,,2013-07-31 11:01:00,
2013-07-31 07:33:00,65.0,63.0,-100.00,North,10,0.0,4.0,93,0.00,,,0.00,29.000000,,2013-07-31 11:33:00,
2013-07-31 07:43:00,65.0,63.0,-100.00,North,10,0.0,4.0,93,0.00,,,0.00,29.000000,,2013-07-31 11:43:00,
2013-07-31 07:53:00,65.0,63.0,-100.00,North,10,0.0,4.0,93,0.00,,,0.00,29.000000,,2013-07-31 11:53:00,
2013-07-31 08:01:00,74.0,65.0,-100.00,NNE,21,0.0,4.0,73,0.00,,,0.00,141.000000,,2013-07-31 12:01:00,
2013-07-31 08:43:00,74.0,65.0,-100.00,NNE,21,0.0,4.0,73,0.00,,,0.00,141.000000,,2013-07-31 12:43:00,
2013-07-31 08:53:00,74.0,65.0,-100.00,NNE,21,0.0,4.0,73,0.00,,,0.00,141.000000,,2013-07-31 12:53:00,
2013-07-31 09:01:00,76.0,62.0,-100.00,NE,47,1.0,5.0,61,0.00,,,0.00,211.000000,,2013-07-31 13:01:00,
2013-07-31 09:33:00,76.0,62.0,-100.00,NE,47,1.0,5.0,61,0.00,,,0.00,211.000000,,2013-07-31 13:33:00,
2013-07-31 09:43:00,76.0,62.0,-100.00,NE,47,1.0,5.0,61,0.00,,,0.00,211.000000,,2013-07-31 13:43:00,
2013-07-31 09:53:00,76.0,62.0,-100.00,NE,47,1.0,5.0,61,0.00,,,0.00,211.000000,,2013-07-31 13:53:00,
2013-07-31 10:01:00,78.0,59.0,-100.00,NE,45,2.0,7.0,53,0.00,,,-99.99,273.000000,,2013-07-31 14:01:00,
2013-07-31 10:34:00,78.0,59.0,-100.00,NE,45,2.0,7.0,53,0.00,,,-99.99,273.000000,,2013-07-31 14:34:00,
2013-07-31 10:43:00,78.0,59.0,-100.00,NE,45,2.0,7.0,53,0.00,,,-99.99,273.000000,,2013-07-31 14:43:00,
2013-07-31 10:53:00,78.0,59.0,-100.00,NE,45,2.0,7.0,53,0.00,,,-99.99,273.000000,,2013-07-31 14:53:00,
2013-07-31 11:01:00,80.0,61.0,-100.00,NNW,340,1.0,4.0,52,0.00,,,0.00,304.000000,,2013-07-31 15:01:00,
2013-07-31 11:33:00,80.0,61.0,-100.00,NNW,340,1.0,4.0,52,0.00,,,0.00,304.000000,,2013-07-31 15:33:00,
2013-07-31 11:44:00,80.0,61.0,-100.00,NNW,340,1.0,4.0,52,0.00,,,0.00,304.000000,,2013-07-31 15:44:00,
2013-07-31 11:53:00,80.0,61.0,-100.00,NNW,340,1.0,4.0,52,0.00,,,0.00,304.000000,,2013-07-31 15:53:00,
2013-07-31 12:01:00,82.0,61.0,-100.00,NW,307,1.0,6.0,49,0.00,,,0.00,333.000000,,2013-07-31 16:01:00,
2013-07-31 12:33:00,82.0,61.0,-100.00,NW,307,1.0,6.0,49,0.00,,,0.00,333.000000,,2013-07-31 16:33:00,
2013-07-31 12:44:00,82.0,61.0,-100.00,NW,307,1.0,6.0,49,0.00,,,0.00,333.000000,,2013-07-31 16:44:00,
2013-07-31 12:53:00,82.0,61.0,-100.00,NW,307,1.0,6.0,49,0.00,,,0.00,333.000000,,2013-07-31 16:53:00,
2013-07-31 13:01:00,79.0,60.0,-100.00,SSW,213,2.0,7.0,53,0.00,,,0.00,300.000000,,2013-07-31 17:01:00,
2013-07-31 13:33:00,79.0,60.0,-100.00,SSW,213,2.0,7.0,53,0.00,,,0.00,300.000000,,2013-07-31 17:33:00,
2013-07-31 13:43:00,79.0,60.0,-100.00,SSW,213,2.0,7.0,53,0.00,,,0.00,300.000000,,2013-07-31 17:43:00,
2013-07-31 13:53:00,79.0,60.0,-100.00,SSW,213,2.0,7.0,53,0.00,,,0.00,300.000000,,2013-07-31 17:53:00,
2013-07-31 14:01:00,81.0,61.0,-100.00,SW,228,2.0,8.0,50,0.00,,,0.00,271.000000,,2013-07-31 18:01:00,
2013-07-31 14:23:00,81.0,61.0,-100.00,SW,228,2.0,8.0,50,0.00,,,0.00,271.000000,,2013-07-31 18:23:00,
2013-07-31 14:33:00,81.0,61.0,-100.00,SW,228,2.0,8.0,50,0.00,,,0.00,271.000000,,2013-07-31 18:33:00,
2013-07-31 14:43:00,81.0,61.0,-100.00,SW,228,2.0,8.0,50,0.00,,,0.00,271.000000,,2013-07-31 18:43:00,
2013-07-31 14:52:00,81.0,61.0,-100.00,SW,228,2.0,8.0,50,0.00,,,0.00,271.000000,,2013-07-31 18:52:00,
2013-07-31 15:01:00,77.0,60.0,-100.00,SSW,207,2.0,7.0,56,0.00,,,0.00,219.000000,,2013-07-31 19:01:00,
2013-07-31 15:33:00,77.0,60.0,-100.00,SSW,207,2.0,7.0,56,0.00,,,0.00,219.000000,,2013-07-31 19:33:00,
2013-07-31 15:43:00,77.0,60.0,-100.00,SSW,207,2.0,7.0,56,0.00,,,0.00,219.000000,,2013-07-31 19:43:00,
2013-07-31 15:53:00,77.0,60.0,-100.00,SSW,207,2.0,7.0,56,0.00,,,0.00,219.000000,,2013-07-31 19:53:00,
2013-07-31 16:01:00,79.0,61.0,-100.00,SSW,203,2.0,7.0,54,0.00,,,0.00,250.000000,,2013-07-31 20:01:00,
2013-07-31 16:32:00,79.0,61.0,-100.00,SSW,203,2.0,7.0,54,0.00,,,0.00,250.000000,,2013-07-31 20:32:00,
2013-07-31 16:43:00,79.0,61.0,-100.00,SSW,203,2.0,7.0,54,0.00,,,0.00,250.000000,,2013-07-31 20:43:00,
2013-07-31 16:53:00,79.0,61.0,-100.00,SSW,203,2.0,7.0,54,0.00,,,0.00,250.000000,,2013-07-31 20:53:00,
2013-07-31 17:01:00,77.0,62.0,-100.00,SW,234,2.0,9.0,60,0.00,,,0.00,208.000000,,2013-07-31 21:01:00,
2013-07-31 17:22:00,77.0,62.0,-100.00,SW,234,2.0,9.0,60,0.00,,,0.00,208.000000,,2013-07-31 21:22:00,
2013-07-31 17:32:00,77.0,62.0,-100.00,SW,234,2.0,9.0,60,0.00,,,0.00,208.000000,,2013-07-31 21:32:00,
2013-07-31 17:43:00,77.0,62.0,-100.00,SW,234,2.0,9.0,60,0.00,,,0.00,208.000000,,2013-07-31 21:43:00,
2013-07-31 17:53:00,77.0,62.0,-100.00,SW,234,2.0,9.0,60,0.00,,,0.00,208.000000,,2013-07-31 21:53:00,
2013-07-31 18:01:00,74.0,62.0,-100.00,SW,226,1.0,8.0,66,0.00,,,0.00,93.000000,,2013-07-31 22:01:00,
2013-07-31 18:33:00,74.0,62.0,-100.00,SW,226,1.0,8.0,66,0.00,,,0.00,93.000000,,2013-07-31 22:33:00,
2013-07-31 18:43:00,74.0,62.0,-100.00,SW,226,1.0,8.0,66,0.00,,,0.00,93.000000,,2013-07-31 22:43:00,
2013-07-31 18:53:00,74.0,62.0,-100.00,SW,226,1.0,8.0,66,0.00,,,0.00,93.000000,,2013-07-31 22:53:00,
2013-07-31 19:01:00,72.0,62.0,-100.00,WSW,242,1.0,6.0,71,0.00,,,0.00,49.000000,,2013-07-31 23:01:00,
2013-07-31 19:32:00,72.0,62.0,-100.00,WSW,242,1.0,6.0,71,0.00,,,0.00,49.000000,,2013-07-31 23:32:00,
2013-07-31 19:43:00,72.0,62.0,-100.00,WSW,242,1.0,6.0,71,0.00,,,0.00,49.000000,,2013-07-31 23:43:00,
2013-07-31 19:53:00,72.0,62.0,-100.00,WSW,242,1.0,6.0,71,0.00,,,0.00,49.000000,,2013-07-31 23:53:00,
2013-07-31 20:01:00,69.0,62.0,-100.00,SSW,197,0.0,4.0,79,0.00,,,-99.99,15.000000,,2013-08-01 00:01:00,
2013-07-31 20:22:00,69.0,62.0,-100.00,SSW,197,0.0,4.0,79,0.00,,,-99.99,15.000000,,2013-08-01 00:22:00,
2013-07-31 20:32:00,69.0,62.0,-100.00,SSW,197,0.0,4.0,79,0.00,,,-99.99,15.000000,,2013-08-01 00:32:00,
2013-07-31 20:43:00,69.0,62.0,-100.00,SSW,197,0.0,4.0,79,0.00,,,-99.99,15.000000,,2013-08-01 00:43:00,
2013-07-31 20:52:00,69.0,62.0,-100.00,SSW,197,0.0,4.0,79,0.00,,,-99.99,15.000000,,2013-08-01 00:52:00,
2013-07-31 21:01:00,66.0,62.0,-100.00,West,273,0.0,3.0,87,0.00,,,0.00,0.000000,,2013-08-01 01:01:00,
2013-07-31 21:22:00,66.0,62.0,-100.00,West,273,0.0,3.0,87,0.00,,,0.00,0.000000,,2013-08-01 01:22:00,
2013-07-31 21:33:00,66.0,62.0,-100.00,West,273,0.0,3.0,87,0.00,,,0.00,0.000000,,2013-08-01 01:33:00,
2013-07-31 21:43:00,66.0,62.0,-100.00,West,273,0.0,3.0,87,0.00,,,0.00,0.000000,,2013-08-01 01:43:00,
2013-07-31 21:53:00,66.0,62.0,-100.00,West,273,0.0,3.0,87,0.00,,,0.00,0.000000,,2013-08-01 01:53:00,
2013-07-31 22:01:00,64.0,61.0,-100.00,WNW,282,0.0,2.0,91,0.00,,,0.00,0.000000,,2013-08-01 02:01:00,
2013-07-31 22:32:00,64.0,61.0,-100.00,WNW,282,0.0,2.0,91,0.00,,,0.00,0.000000,,2013-08-01 02:32:00,
2013-07-31 22:43:00,64.0,61.0,-100.00,WNW,282,0.0,2.0,91,0.00,,,0.00,0.000000,,2013-08-01 02:43:00,
2013-07-31 22:53:00,64.0,61.0,-100.00,WNW,282,0.0,2.0,91,0.00,,,0.00,0.000000,,2013-08-01 02:53:00,
2013-07-31 23:01:00,64.0,62.0,-100.00,West,280,0.0,2.0,93,0.00,,,0.00,0.000000,,2013-08-01 03:01:00,
2013-07-31 23:32:00,64.0,62.0,-100.00,West,280,0.0,2.0,93,0.00,,,0.00,0.000000,,2013-08-01 03:32:00,
2013-07-31 23:43:00,64.0,62.0,-100.00,West,280,0.0,2.0,93,0.00,,,0.00,0.000000,,2013-08-01 03:43:00,
2013-07-31 23:53:00,64.0,62.0,-100.00,West,280,0.0,2.0,93,0.00,,,0.00,0.000000,,2013-08-01 03:53:00,